Content
SEND FEEDBACK

Daily
Averages
Monthly
Summary
United States of America

KEITHSBURG, ILLINOIS


Home > North America > United States > Illinois
Elevation: 540 feet     Latitude: 41 06N     Longitude: 090 57W

WEATHER
 
SELECT A DAY
Number of Records: 259,301;   Date Range: 4/23/95 - 9/3/14
 
SHARE

PRINT THIS DATA

[ ← Previous Day ]
WEATHER ALMANAC - JANUARY 3, 2013
[ Next Day → ]
[ °C ]   °F
Weather ElementAverageHighLow
Temperature23.4 °F30.2 °F (12:35 am)12.2 °F (9:55 pm)
Dewpoint14.5 °F24.8 °F (1:15 am)5 °F (10:35 pm)
Humidity69 %80 % (1:15 am)54 % (11:15 am)
Barometer30.27 in30.37 in (6:55 pm)30.13 in (12:35 am)
Wind Speed11.6 mph20.7 mph (9:35 am)
Wind Gust26.5 mph (9:35 am)
Weather ElementAverage
Visibility10 mi
Wind DirectionWNW (283.2 °)

Weather ElementTotal
Precipitation---
Heating Degree Days43.8 (Base 65)
Averaged from 69 records on January 3, 2013
WEATHER CONDITIONS BREAKOUT
WIND DIRECTION BREAKOUT
WEATHER BY HOUR - JANUARY 3, 2013
[ °C ]   °F
Local TimeTemperatureDewpointHumidityBarometerVisibilityWind DirectionWind SpeedGust SpeedPrecipitationEventsConditions
12:35 AM30.2 °F23.0 °F75 %30.13 in10.0 miWest (260°)11.5 mphOvercast
12:55 AM30.2 °F23.0 °F75 %30.13 in10.0 miWest (260°)10.4 mphOvercast
1:15 AM30.2 °F24.8 °F80 %30.13 in10.0 miWest (260°)10.4 mphOvercast
1:35 AM30.2 °F24.8 °F80 %30.14 in10.0 miWest (260°)11.5 mphOvercast
1:55 AM30.2 °F24.8 °F80 %30.14 in10.0 miWest (270°)13.8 mphOvercast
2:15 AM30.2 °F24.8 °F80 %30.15 in10.0 miWest (270°)12.7 mphOvercast
2:35 AM30.2 °F24.8 °F80 %30.15 in10.0 miWest (270°)10.4 mphOvercast
2:55 AM30.2 °F24.8 °F80 %30.16 in10.0 miWest (280°)11.5 mphOvercast
3:15 AM30.2 °F24.8 °F80 %30.16 in10.0 miWNW (290°)9.2 mphOvercast
3:35 AM30.2 °F24.8 °F80 %30.16 in10.0 miWest (280°)11.5 mphOvercast
3:55 AM30.2 °F23.0 °F75 %30.16 in10.0 miWest (280°)13.8 mphOvercast
4:15 AM30.2 °F23.0 °F75 %30.16 in10.0 miWNW (290°)11.5 mphOvercast
4:35 AM30.2 °F21.2 °F69 %30.17 in10.0 miWest (280°)9.2 mphOvercast
4:55 AM30.2 °F21.2 °F69 %30.18 in10.0 miWest (280°)10.4 mphOvercast
5:15 AM30.2 °F21.2 °F69 %30.18 in10.0 miWNW (290°)11.5 mphOvercast
5:35 AM30.2 °F21.2 °F69 %30.18 in10.0 miWNW (290°)9.2 mphOvercast
6:15 AM28.4 °F21.2 °F74 %30.20 in10.0 miWest (280°)6.9 mphOvercast
6:35 AM30.2 °F21.2 °F69 %30.20 in10.0 miWest (280°)9.2 mphOvercast
6:55 AM30.2 °F21.2 °F69 %30.21 in10.0 miWest (280°)8.1 mphOvercast
7:15 AM30.2 °F21.2 °F69 %30.22 in10.0 miWest (280°)8.1 mphOvercast
7:35 AM30.2 °F21.2 °F69 %30.22 in10.0 miWNW (290°)15.0 mphOvercast
7:55 AM28.4 °F21.2 °F74 %30.23 in10.0 miWNW (290°)10.4 mphOvercast
8:15 AM28.4 °F21.2 °F74 %30.23 in10.0 miWNW (300°)10.4 mphOvercast
8:35 AM28.4 °F21.2 °F74 %30.24 in10.0 miWNW (300°)15.0 mph20.7 mphOvercast
8:55 AM26.6 °F17.6 °F69 %30.26 in10.0 miNW (310°)15.0 mph21.9 mphOvercast
9:35 AM24.8 °F15.8 °F69 %30.28 in10.0 miNW (310°)20.7 mph26.5 mphOvercast
9:55 AM23.0 °F12.2 °F63 %30.29 in10.0 miWNW (300°)16.1 mph26.5 mphOvercast
10:15 AM23.0 °F12.2 °F63 %30.29 in10.0 miWNW (300°)16.1 mph23.0 mphScattered Clouds
10:35 AM24.8 °F12.2 °F59 %30.29 in10.0 miWNW (300°)17.3 mphClear
10:55 AM24.8 °F12.2 °F59 %30.30 in10.0 miWNW (290°)13.8 mph18.4 mphClear
11:15 AM24.8 °F10.4 °F54 %30.30 in10.0 miWNW (290°)17.3 mph23.0 mphClear
11:35 AM26.6 °F12.2 °F55 %30.29 in10.0 miWest (280°)17.3 mph23.0 mphClear
11:55 AM26.6 °F12.2 °F55 %30.29 in10.0 miWNW (290°)15.0 mphClear
12:15 PM26.6 °F12.2 °F55 %30.28 in10.0 miWest (280°)18.4 mphClear
12:35 PM26.6 °F12.2 °F55 %30.28 in10.0 miWest (280°)18.4 mphClear
12:55 PM26.6 °F12.2 °F55 %30.28 in10.0 miWNW (290°)16.1 mphClear
1:15 PM26.6 °F12.2 °F55 %30.28 in10.0 miNW (310°)17.3 mphMostly Cloudy
1:35 PM26.6 °F14.0 °F59 %30.29 in10.0 miWNW (300°)15.0 mphOvercast
1:55 PM26.6 °F14.0 °F59 %30.29 in10.0 miWNW (290°)13.8 mphOvercast
2:15 PM24.8 °F12.2 °F59 %30.30 in10.0 miWNW (300°)13.8 mphOvercast
2:35 PM23.0 °F12.2 °F63 %30.30 in10.0 miNW (310°)15.0 mphOvercast
2:55 PM23.0 °F12.2 °F63 %30.31 in10.0 miWNW (300°)11.5 mphOvercast
3:15 PM21.2 °F12.2 °F68 %30.31 in10.0 miWNW (300°)13.8 mphOvercast
3:35 PM21.2 °F12.2 °F68 %30.32 in10.0 miWNW (290°)11.5 mphOvercast
3:55 PM21.2 °F12.2 °F68 %30.32 in10.0 miWNW (290°)10.4 mphOvercast
4:15 PM21.2 °F12.2 °F68 %30.33 in10.0 miWNW (290°)11.5 mphOvercast
4:35 PM21.2 °F12.2 °F68 %30.33 in10.0 miWNW (300°)12.7 mphOvercast
4:55 PM21.2 °F12.2 °F68 %30.34 in10.0 miWNW (290°)10.4 mphOvercast
5:15 PM21.2 °F10.4 °F63 %30.34 in10.0 miWNW (300°)9.2 mphOvercast
5:35 PM19.4 °F10.4 °F68 %30.35 in10.0 miWNW (290°)10.4 mphOvercast
5:55 PM19.4 °F10.4 °F68 %30.36 in10.0 miWNW (300°)10.4 mph18.4 mphScattered Clouds
6:15 PM17.6 °F8.6 °F68 %30.36 in10.0 miWNW (290°)11.5 mphClear
6:35 PM17.6 °F8.6 °F68 %30.36 in10.0 miWNW (290°)12.7 mphClear
6:55 PM15.8 °F8.6 °F73 %30.37 in10.0 miWNW (290°)10.4 mphClear
7:15 PM15.8 °F8.6 °F73 %30.37 in10.0 miWest (280°)10.4 mphClear
7:35 PM15.8 °F6.8 °F68 %30.36 in10.0 miWNW (290°)10.4 mphClear
7:55 PM15.8 °F6.8 °F68 %30.37 in10.0 miWest (280°)9.2 mphClear
8:15 PM15.8 °F6.8 °F68 %30.37 in10.0 miWest (280°)8.1 mphClear
8:35 PM15.8 °F6.8 °F68 %30.37 in10.0 miWest (270°)8.1 mphClear
8:55 PM14.0 °F6.8 °F73 %30.36 in10.0 miWest (280°)8.1 mphClear
9:15 PM14.0 °F6.8 °F73 %30.37 in10.0 miWNW (290°)8.1 mphClear
9:35 PM14.0 °F6.8 °F73 %30.36 in10.0 miWest (270°)6.9 mphClear
9:55 PM12.2 °F6.8 °F79 %30.35 in10.0 miWSW (250°)6.9 mphClear
10:15 PM12.2 °F6.8 °F79 %30.35 in10.0 miWest (260°)5.8 mphClear
10:35 PM12.2 °F5.0 °F73 %30.35 in10.0 miWest (260°)5.8 mphClear
10:55 PM12.2 °F5.0 °F73 %30.35 in10.0 miWSW (250°)8.1 mphClear
11:15 PM12.2 °F5.0 °F73 %30.35 in10.0 miWSW (240°)6.9 mphClear
11:35 PM12.2 °F5.0 °F73 %30.34 in10.0 miWest (260°)6.9 mphClear
11:55 PM12.2 °F5.0 °F73 %30.34 in10.0 miSW (220°)5.8 mphClear
Hourly data recorded from KMUT, located miles away from Keithsburg, Illinois







STORIES FROM OUR PARTNERS